Vorticity
nan nan nan nan nan nan nan nan nan nan nan nan nan nan nan nan nan nan nan nan nan nan nan nan nan nan nan nan nan nan nan nan nan nan nan nan nan nan nan nan nan nan nan nan
nan 12 5 21 23 10 8 8 4 5 9 7 7 8 8 5 7 9 12 14 8 10 10 15 16 16 13 10 11 11 11 10 10 10 10 9 10 10 9 9 9 9 9 nan
nan 13 13 16 21 18 7 11 6 8 8 10 8 7 8 4 4 6 4 3 8 10 9 6 9 12 14 12 10 12 12 11 12 12 11 10 10 9 9 10 9 10 10 nan
nan 19 19 13 9 13 23 15 8 5 10 12 9 6 5 9 8 5 6 6 9 9 5 11 15 7 8 11 10 8 9 12 13 13 12 11 10 9 10 11 10 10 10 nan
nan 17 17 14 11 12 13 20 19 10 5 3 9 6 6 9 11 11 9 11 13 13 14 16 13 13 15 9 11 9 6 8 10 11 12 11 11 9 9 10 11 10 10 nan
nan 21 18 8 12 24 14 -8 6 29 25 7 9 6 -1 3 11 12 12 12 10 11 17 18 13 15 18 15 10 11 10 9 10 11 11 11 12 11 9 10 10 10 11 nan
nan 5 6 2 28 33 11 -1 4 19 25 14 8 11 7 6 7 9 11 9 9 9 9 10 8 11 11 17 17 14 12 12 12 12 12 11 11 12 11 10 11 10 10 nan
nan 7 -6 6 22 14 14 5 7 9 11 12 8 8 7 8 8 9 11 14 17 12 10 8 12 11 11 10 9 17 21 15 11 12 13 12 12 11 12 10 10 11 11 nan
nan 0 -4 6 9 5 6 5 4 6 5 8 8 6 9 9 8 14 17 13 11 12 13 19 11 10 14 14 14 14 14 15 13 14 11 12 12 10 10 11 11 11 10 nan
nan 4 -0 2 4 4 4 5 4 4 4 9 8 6 7 9 10 11 17 15 9 14 17 13 8 13 14 13 15 14 13 12 12 12 12 10 10 12 10 10 10 9 11 nan
nan 14 6 6 7 5 2 5 5 5 8 6 4 6 9 11 11 9 7 6 12 16 17 10 10 11 10 11 15 15 13 11 11 11 13 10 10 11 11 11 17 22 19 nan
nan 7 10 7 11 11 13 11 6 2 7 5 7 8 8 10 10 12 9 7 9 14 13 10 10 9 11 12 13 18 17 11 12 12 11 12 11 11 8 13 17 18 17 nan
nan 1 6 10 13 9 9 16 18 13 9 6 5 7 10 13 10 11 12 12 9 14 14 10 10 9 12 11 11 14 13 14 15 10 17 21 13 15 10 9 11 6 6 nan
nan 10 10 9 8 10 11 5 7 16 14 13 11 14 12 5 10 14 15 20 20 13 9 9 8 15 16 14 11 11 9 10 11 12 12 12 14 14 15 9 6 3 6 nan
nan 11 9 9 7 8 10 12 5 6 8 11 10 9 14 8 12 14 18 18 18 13 13 12 10 11 10 10 9 14 15 14 13 9 10 11 11 10 10 12 11 9 8 nan
nan 20 12 9 15 13 7 8 8 7 8 8 8 10 8 11 13 19 24 12 11 10 13 15 12 13 16 12 7 8 7 9 17 16 12 11 11 13 13 11 10 12 11 nan
nan 24 16 10 12 15 14 8 11 13 12 12 10 14 14 19 19 14 13 13 11 11 11 12 11 15 17 12 13 11 8 9 11 13 12 13 13 13 12 12 12 12 15 nan
nan 19 21 20 19 18 20 24 18 19 21 19 26 31 26 21 13 16 16 13 8 11 10 10 12 13 17 19 16 7 8 14 14 13 11 12 11 11 12 12 11 10 10 nan
nan 24 24 25 29 24 20 22 25 20 17 22 21 21 24 14 12 16 12 11 7 9 12 19 11 8 10 18 18 14 13 10 12 14 13 13 11 11 11 11 10 10 12 nan
nan 19 18 16 18 28 25 13 11 9 11 14 14 9 13 12 11 9 12 9 7 5 7 13 18 15 8 12 17 15 11 10 11 10 11 12 11 13 11 9 11 12 12 nan
nan 7 11 11 9 13 17 15 8 6 12 12 11 6 7 8 10 12 11 7 4 8 9 13 16 12 14 16 11 10 11 12 10 10 12 11 9 11 12 10 12 11 12 nan
nan 10 6 8 10 9 12 12 12 12 9 9 10 12 10 7 7 10 8 8 6 8 14 9 5 13 16 13 14 12 14 14 13 13 11 9 10 10 11 10 10 10 10 nan
nan 12 8 11 11 9 8 9 9 9 10 12 14 12 8 11 11 8 9 11 10 13 12 4 6 16 21 12 10 10 9 9 12 12 12 14 14 11 9 12 12 11 10 nan
nan 13 20 16 6 6 11 12 13 11 8 7 6 9 13 10 9 10 10 13 12 11 9 9 9 15 18 14 12 10 10 13 11 11 11 11 12 11 10 11 13 10 8 nan
nan 11 7 12 17 14 9 12 11 7 8 9 11 11 8 11 13 12 11 6 11 14 7 8 16 18 14 11 12 11 11 10 11 13 12 12 11 10 10 11 9 10 12 nan
nan 15 16 10 8 10 12 13 9 11 14 11 10 12 12 12 10 14 12 10 13 13 10 10 14 16 12 12 12 12 10 9 14 13 11 11 12 11 11 10 10 11 10 nan
nan nan nan nan nan nan nan nan nan nan nan nan nan nan nan nan nan nan nan nan nan nan nan nan nan nan nan nan nan nan nan nan nan nan nan nan nan nan nan nan nan nan nan nan
CAPE
0 0 7 0 0 0 0 0 0 0 0 0 0 2 0 6 215 309 592 842 1207 1264 1670 1931 2291 2535 2677 2484 2444 2505 2620 3393 3519 3624 3915 3700 3645 3678 3786 3394 3481 3416 3551 3610
6 0 0 4 0 0 0 0 0 0 2 0 0 26 5 33 22 38 71 117 238 494 661 1453 2926 3005 2762 2776 2913 2815 2856 2923 3217 3521 3713 4075 3933 3857 3941 3884 3771 3860 3789 3656
0 0 0 2 2 0 0 0 0 0 11 8 4 22 2 0 0 0 0 0 0 87 588 1014 1441 3500 3232 3052 3090 3470 3296 3377 3355 3583 3736 3932 4094 4111 3970 4049 4023 4004 3992 3968
0 0 2 0 3 1 0 0 0 0 43 200 103 51 0 0 0 0 0 0 68 0 13 496 162 478 1999 3242 3699 3480 4006 3837 4189 4077 3856 4021 4085 4181 4212 4180 4216 4117 4176 4186
0 1 0 10 0 0 0 1 5 4 12 1 0 0 0 0 0 0 0 14 35 0 0 882 435 687 1139 1448 3423 3518 3292 3752 3689 4328 4192 4157 4236 4245 4299 4357 4288 4317 4257 4301
0 0 2 0 0 0 0 1 402 40 0 0 0 0 641 897 763 757 749 991 1329 971 858 455 1589 492 1504 1564 2778 3301 3327 3498 3976 3759 4187 4207 4309 4399 4413 4467 4442 4404 4393 4341
0 0 0 0 0 0 11 121 85 97 113 89 268 839 632 210 446 841 1165 1278 1301 1348 1315 2392 2410 1692 2935 2489 2116 3228 3455 3777 4181 4460 4157 4249 4444 4552 4550 4572 4530 4490 4442 4442
0 0 0 0 0 26 62 0 0 0 0 0 0 0 55 50 291 902 1462 1347 982 1414 1474 2031 1850 2288 2773 3552 4227 4239 4593 4149 4479 4705 4231 4280 4578 4752 4632 4558 4545 4496 4534 4467
0 0 62 0 0 0 0 0 0 0 0 0 0 0 0 277 594 1697 2084 1896 1679 2169 2780 3437 3167 4420 4355 4951 4848 4729 5226 4998 4712 4951 4628 4407 4710 4640 4584 4624 4557 4543 4493 4434
1 0 0 0 0 0 0 0 0 0 0 0 0 0 0 216 475 1314 2315 2031 1510 2116 2816 4430 4845 4804 4775 4964 4386 4626 5171 5377 5159 5109 4847 4702 4555 4590 4536 4459 4452 4428 4257 4309
14 0 0 0 0 0 0 0 0 0 0 0 0 0 0 7 385 653 1769 2463 3102 3361 2996 2888 2878 2903 2840 3321 4160 4356 4562 4849 5083 4746 4748 4802 4663 3992 4532 4386 4012 4159 4086 3915
7 20 49 25 1 0 0 0 0 0 0 0 0 0 0 99 552 733 1106 1526 2364 2724 2215 2400 2309 2241 2574 2555 3146 4330 4902 4560 4356 4096 4431 4137 4403 4407 3757 2245 76 1 0 408
1 0 0 0 0 0 0 0 0 0 0 0 0 0 0 11 369 408 693 1158 1434 2050 1523 1488 1406 1637 1846 2142 2597 3213 3229 3725 2297 2100 3069 4577 4418 4767 4480 157 0 0 0 0
0 5 1 0 0 0 0 0 0 0 0 0 0 0 0 12 73 672 1225 1265 1449 1465 1228 1015 1166 1775 1782 2296 2697 2327 1947 536 2013 2133 2102 1835 1533 1492 1386 1406 1752 843 23 0
11 1 0 1 2 27 13 0 0 0 0 0 0 1 1 7 69 450 1216 869 922 1082 1091 1351 1109 1188 1460 1800 1702 1351 2033 1453 1256 862 718 861 1519 1466 876 874 839 546 246 0
0 4 9 0 3 7 3 1 1 0 0 0 0 0 23 2 38 277 518 412 512 334 501 738 1072 927 1729 1556 1377 567 390 78 522 1294 975 1278 1084 881 754 702 414 287 28 0
11 17 1 22 24 26 24 16 3 0 6 6 24 87 46 58 80 31 0 0 0 0 0 6 421 575 1208 1114 842 594 345 401 192 407 308 278 290 223 181 108 98 44 4 0
23 10 3 1 5 8 13 18 31 86 104 109 106 45 75 35 10 1 3 1 5 0 0 2 4 1 0 109 489 414 289 114 96 55 16 8 3 2 2 5 8 4 0 0
9 12 8 10 21 21 24 7 6 6 4 2 9 4 3 6 5 4 0 0 0 0 0 4 0 0 0 0 1 3 12 3 1 1 0 4 9 13 13 8 4 3 4 6
6 6 6 4 4 15 17 15 14 12 10 4 2 1 2 7 6 4 0 0 0 0 0 0 0 0 0 0 0 9 5 0 0 0 0 0 0 6 2 0 1 0 3 5
48 30 12 7 12 4 11 6 4 6 6 8 6 4 2 3 1 0 0 0 0 0 0 0 0 0 4 9 5 5 9 9 4 0 0 1 0 0 0 0 1 2 4 4
75 56 35 25 28 8 6 3 7 14 10 4 1 10 10 3 2 2 0 0 0 0 0 0 0 0 0 0 0 1 6 8 4 3 1 0 0 0 0 0 0 0 3 2
67 52 36 36 15 27 1 0 0 0 0 2 9 13 0 0 0 0 0 0 0 0 0 0 0 0 0 0 0 0 0 0 1 6 5 8 12 1 0 1 2 2 5 3
51 12 77 42 9 8 18 14 15 14 8 0 0 0 0 0 0 0 0 0 0 0 0 0 0 0 0 0 0 0 0 1 0 0 0 0 0 0 0 0 1 0 0 0
11 38 13 8 35 37 52 63 30 6 5 12 16 5 0 0 0 0 0 0 0 0 0 0 0 0 0 0 0 0 0 0 0 1 4 6 2 0 0 0 0 0 0 0
3 1 19 36 1 0 3 4 0 0 1 0 0 0 0 0 0 0 0 0 0 0 0 0 0 0 0 0 0 0 0 0 0 0 0 0 5 5 5 2 0 0 0 0
5 0 16 10 5 0 0 0 0 0 0 0 0 0 0 0 0 0 0 0 0 0 0 0 0 0 0 0 0 0 0 0 0 0 0 0 0 0 1 12 12 7 1 0